Find OPS 0441

NORAD ID: 14675 Int'l Des: 1984-009 Owner: NRO/SAFSP Country: US operational
MEOGSO

Live-Position

3D-Globus wird geladen...

Über OPS 0441

Beschreibung wird geladen...

Nächste Überflüge

Passes for default location (London). Set your location on the main map for personalized predictions.

Höhenverlauf

Loading altitude history...

Zweizeiliger Elementsatz

1 14675U 84009A 26105.63237832 .00000076 00000-0 00000+0 0 9994
2 14675 6.0717 2.4399 0882590 25.1955 258.3168 1.00335468 7114
Epoch: 15. Apr. 2026 • Age: 19 hours

Aktueller Status

Höhe 39457.4 km
Geschwindigkeit 2.82 km/s
Subsatellitenpunkt -3.39°S, 147.11°W
Startdatum 31. Jan. 1984
Alter 42.2 years
Typ other

Technische Details

Klassifizierung Payload
Masse 1000.00 kg
Trockenmasse 900.00 kg
Gesamtmasse 1000.00 kg
Länge 6.00 m
Durchmesser 2.50 m
Spannweite 30.00 m
Form Box + 2 Pan + Dish
Hersteller TRW
Bus-Typ Vortex
Phasenstatus Unknown Transfer Status
Besitzer/Staat NRO/SAFSP/US

Most Searched